Wiscasset, ME

7:43 PM EST on December 12, 2017 (GMT -0500)
Wiscasset

Weather History for KIWI - October, 2013

Change the Weather History Date:

Friday, October 11, 2013

  Actual Average Record
Temperature  
Mean Temperature 54 °F -  
Max Temperature 69 °F 57 °F 72 °F (2003)
Min Temperature 41 °F 36 °F 30 °F (1996)
Degree Days  
Heating Degree Days 10    
Growing Degree Days 4 (Base 50)    
Moisture  
Dew Point 46 °F    
Average Humidity 84    
Maximum Humidity 100    
Minimum Humidity 49    
Precipitation  
Precipitation 0.00 in - - ()
Sea Level Pressure  
Sea Level Pressure 30.17 in    
Wind  
Wind Speed 0 mph (North)    
Max Wind Speed 0 mph    
Max Gust Speed -    
Visibility 10 miles    
Events      
Averages and records for this station are not official NWS values.
T = Trace of Precipitation, MM = Missing Value Source: NWS Daily Summary

Daily Weather History Graph

Daily Weather History Graph

Search for Another Location

Airport or City:

Trip Planner

Search our weather history database for the weather conditions in past years. The results will help you decide how hot, cold, wet, or windy it might be!

Date:

Astronomy

Oct. 11, 2013 Rise Set
Actual Time 6:48 AM EDT 6:01 PM EDT
Civil Twilight 6:19 AM EDT 6:30 PM EDT
Nautical Twilight 5:46 AM EDT 7:03 PM EDT
Astronomical Twilight 5:12 AM EDT 7:37 PM EDT
Moon 1:34 PM EDT (10/11) 11:36 PM EDT (10/11)
Length of Visible Light 12h 10m
Length of Day
11h 12m
Waxing Crescent, 47% of the Moon is Illuminated
Oct 11
Waxing Crescent
Oct 11
First Quarter
Oct 18
Full
Oct 26
Last Quarter
Nov 3
New

Hourly Weather History & Observations

Time (EDT) Temp. Dew Point Humidity Pressure Visibility Wind Dir Wind Speed Gust Speed Precip Events Conditions
12:53 AM 45.0 °F 43.0 °F 93% 30.19 in 10.0 mi Calm Calm - N/A   Clear
1:53 AM 44.1 °F 42.1 °F 93% 30.19 in 10.0 mi Calm Calm - N/A   Clear
2:00 AM 44.6 °F 42.8 °F 93% 30.18 in 10.0 mi Calm Calm - N/A   Scattered Clouds
2:12 AM 44.6 °F 42.8 °F 93% 30.18 in 10.0 mi Calm Calm - N/A   Mostly Cloudy
2:53 AM 44.1 °F 42.1 °F 93% 30.18 in 10.0 mi Calm Calm - N/A   Overcast
3:18 AM 42.8 °F 39.2 °F 87% 30.17 in 10.0 mi Calm Calm - N/A   Scattered Clouds
3:53 AM 42.1 °F 39.9 °F 92% 30.17 in 10.0 mi Calm Calm - N/A   Clear
4:06 AM 41.0 °F 39.2 °F 93% 30.17 in 10.0 mi Calm Calm - N/A   Scattered Clouds
4:15 AM 42.8 °F 39.2 °F 87% 30.17 in 10.0 mi Calm Calm - N/A   Mostly Cloudy
4:53 AM 43.0 °F 41.0 °F 93% 30.18 in 7.0 mi Calm Calm - N/A   Overcast
5:05 AM 42.8 °F 42.8 °F 100% 30.17 in 2.5 mi Calm Calm - N/A   Overcast
5:13 AM 42.8 °F 41.0 °F 93% 30.17 in 10.0 mi Calm Calm - N/A   Overcast
5:53 AM 43.0 °F 41.0 °F 93% 30.18 in 10.0 mi Calm Calm - N/A   Overcast
6:11 AM 42.8 °F 41.0 °F 93% 30.18 in 10.0 mi Calm Calm - N/A   Scattered Clouds
6:53 AM 43.0 °F 41.0 °F 93% 30.19 in 10.0 mi Calm Calm - N/A   Clear
7:53 AM 45.0 °F 43.0 °F 93% 30.19 in 10.0 mi Calm Calm - N/A   Clear
8:53 AM 51.1 °F 48.0 °F 89% 30.19 in 10.0 mi Calm Calm - N/A   Clear
9:53 AM 55.9 °F 48.9 °F 77% 30.19 in 10.0 mi Calm Calm - N/A   Clear
10:53 AM 60.1 °F 48.0 °F 64% 30.19 in 10.0 mi Calm Calm - N/A   Clear
11:53 AM 63.0 °F 48.9 °F 60% 30.17 in 10.0 mi Calm Calm - N/A   Clear
12:53 PM 66.9 °F 46.9 °F 49% 30.15 in 10.0 mi Calm Calm - N/A   Clear
1:53 PM 68.0 °F 50.0 °F 52% 30.14 in 10.0 mi Calm Calm - N/A   Clear
2:53 PM 68.0 °F 50.0 °F 52% 30.14 in 10.0 mi Calm Calm - N/A   Clear
3:53 PM 66.9 °F 52.0 °F 59% 30.14 in 10.0 mi Calm Calm - N/A   Clear
4:53 PM 64.0 °F 57.0 °F 78% 30.14 in 10.0 mi Calm Calm - N/A   Clear
5:53 PM 60.1 °F 55.9 °F 86% 30.14 in 10.0 mi Calm Calm - N/A   Clear
6:53 PM 55.9 °F 53.1 °F 90% 30.16 in 10.0 mi Calm Calm - N/A   Clear
7:53 PM 54.0 °F 52.0 °F 93% 30.15 in 10.0 mi Calm Calm - N/A   Clear
8:53 PM 52.0 °F 51.1 °F 97% 30.17 in 10.0 mi Calm Calm - N/A   Clear
9:53 PM 51.1 °F 48.9 °F 92% 30.18 in 10.0 mi Calm Calm - N/A   Clear
10:53 PM 50.0 °F 46.9 °F 89% 30.18 in 10.0 mi Calm Calm - N/A   Clear
11:53 PM 48.0 °F 46.0 °F 93% 30.19 in 10.0 mi Calm Calm - N/A   Clear